Location: Newark
(39.6867°N, 100.6772°W)
Time: 10:45:02
(UTC+00:00)

Vanguard 1 Rocket - Pass Details

Date: 24 October 2019
Orbit: 651 x 4225 km, 34.3° (Epoch: 13 November)

Event Time Altitude Azimuth Distance (km) Brightness Sun altitude
Rises 20:01:18 0° 276° (W) 6,243 11.9 34.0°
Reaches altitude 10° 20:04:44 10° 274° (W) 5,603 11.8 33.7°
Maximum altitude 20:23:51 68° 197° (SSW) 4,132 11.7 31.7°
Drops below altitude 10° 20:49:49 10° 121° (ESE) 7,231 12.0 28.7°
Sets 20:55:04 0° 119° (ESE) 8,036 12.1 28.0°
